User: anonymous   Login
Location: De Greiden
(52.9496°N, 5.9137°E)
Time: 08:57:10
(UTC+00:00)
Language:

USA 281 - Orbit

View from above orbital plane
View from above orbital plane
View from above satellite
View from above satellite

Ground track
Ground track

The orbit data is extracted from the following two-line orbital elements,

1 43145U 18005A   21093.90616262 0.00000000  00000-0  00000-0 0    01
2 43145 106.0266 206.1367 0005003 324.2511  35.7489 13.48009242    00
Epoch (UTC): 03 April 2021 21:44:52
Eccentricity: 0.0005003
inclination: 106.0266°
perigee height: 1076 km
apogee height: 1083 km
right ascension of ascending node: 206.1367°
argument of perigee: 324.2511°
revolutions per day: 13.48009242
mean anomaly at epoch: 35.7489°
orbit number at epoch: 0

The dashed part of the orbit path shows where the satellite is in the earth's shadow,  

DLR